^^
Station Historical Data
 
Daily Summary for February 01, 2015 Units:  English    Metric   Both
« Previous Day
Next Day »
Daily Weekly Monthly Yearly Custom
  Current: High: Low: Average:
Temperature: 33.2 °F 33.4 °F 23.3 °F 27.1 °F
Dew Point: 29.2 °F 29.2 °F 8.8 °F 19 °F
Humidity: 85% 86% 52% 72%
Wind Speed: 2.6mph 7.4mph 0.0mph 3.6mph
Wind Gust: 5.4mph 12.1mph - -
WindENE - - South
Pressure: 29.91 in 30.22 in 29.91 in -
Precipitation: 0.00 in      
Historical Graphs
 
 
Tabular Data for February 01, 2015
Time Temperature Dew Point Pressure Wind Wind Speed Wind Gust Humidity Rainfall Rate (Hourly)
00:03 23.3 °F 8.8 °F 30.22 in Calm     53% 0.00 in
00:08 23.3 °F 8.8 °F 30.21 in Calm     53% 0.00 in
00:13 23.5 °F 9.0 °F 30.21 in Calm     53% 0.00 in
00:18 23.5 °F 9.0 °F 30.21 in Calm     53% 0.00 in
00:24 23.7 °F 9.1 °F 30.21 in Calm     53% 0.00 in
00:29 23.7 °F 9.1 °F 30.21 in Calm     53% 0.00 in
00:34 23.7 °F 9.5 °F 30.21 in Calm     54% 0.00 in
00:39 23.9 °F 9.7 °F 30.21 in Calm     54% 0.00 in
00:44 23.9 °F 9.7 °F 30.20 in Calm     54% 0.00 in
00:49 23.9 °F 9.7 °F 30.21 in Calm     54% 0.00 in
00:54 24.1 °F 9.9 °F 30.21 in Calm     54% 0.00 in
00:59 23.9 °F 9.7 °F 30.20 in Calm     54% 0.00 in
01:04 23.9 °F 9.7 °F 30.20 in Calm     54% 0.00 in
01:09 23.9 °F 9.7 °F 30.20 in Calm     54% 0.00 in
01:14 23.9 °F 9.7 °F 30.20 in Calm     54% 0.00 in
01:19 23.9 °F 9.7 °F 30.21 in Calm     54% 0.00 in
01:24 23.9 °F 9.7 °F 30.20 in South 1.6 mph 5.4 mph 54% 0.00 in
01:29 23.9 °F 9.7 °F 30.20 in South 3.0 mph 5.4 mph 54% 0.00 in
01:34 23.9 °F 9.7 °F 30.20 in South 3.0 mph 4.5 mph 54% 0.00 in
01:39 23.9 °F 9.7 °F 30.20 in South 3.5 mph 4.5 mph 54% 0.00 in
01:44 24.1 °F 9.9 °F 30.20 in South 3.0 mph 4.5 mph 54% 0.00 in
01:49 24.1 °F 9.9 °F 30.20 in South 2.5 mph 4.5 mph 54% 0.00 in
01:54 24.1 °F 9.9 °F 30.20 in South 2.7 mph 4.5 mph 54% 0.00 in
01:59 24.2 °F 10.0 °F 30.20 in SSW 3.0 mph 5.4 mph 54% 0.00 in
02:04 24.2 °F 9.6 °F 30.20 in West 2.3 mph 5.4 mph 53% 0.00 in
02:09 24.2 °F 10.0 °F 30.19 in South 1.7 mph 3.8 mph 54% 0.00 in
02:14 24.4 °F 9.8 °F 30.19 in South 2.7 mph 4.5 mph 53% 0.00 in
02:19 24.2 °F 9.6 °F 30.19 in South 3.3 mph 4.5 mph 53% 0.00 in
02:24 24.2 °F 10.0 °F 30.19 in West 2.9 mph 3.8 mph 54% 0.00 in
02:29 24.2 °F 10.0 °F 30.19 in SSW 3.0 mph 3.8 mph 54% 0.00 in
02:34 24.4 °F 10.2 °F 30.19 in South 2.8 mph 3.8 mph 54% 0.00 in
02:39 24.4 °F 10.2 °F 30.19 in SW 3.0 mph 4.5 mph 54% 0.00 in
02:44 24.4 °F 10.2 °F 30.19 in SW 3.3 mph 4.5 mph 54% 0.00 in
02:49 24.4 °F 10.2 °F 30.19 in South 2.9 mph 4.5 mph 54% 0.00 in
02:54 24.4 °F 10.2 °F 30.19 in South 2.8 mph 3.8 mph 54% 0.00 in
03:00 24.4 °F 10.2 °F 30.19 in South 3.3 mph 4.5 mph 54% 0.00 in
03:05 24.4 °F 10.2 °F 30.19 in South 3.7 mph 4.5 mph 54% 0.00 in
03:10 24.6 °F 10.4 °F 30.19 in South 3.7 mph 4.5 mph 54% 0.00 in
03:15 24.6 °F 10.0 °F 30.19 in South 3.4 mph 5.4 mph 53% 0.00 in
03:20 24.6 °F 10.0 °F 30.19 in ESE 3.4 mph 5.4 mph 53% 0.00 in
03:25 24.8 °F 10.1 °F 30.19 in North 3.3 mph 5.4 mph 53% 0.00 in
03:30 24.8 °F 10.1 °F 30.19 in SSW 3.0 mph 4.5 mph 53% 0.00 in
03:35 25.0 °F 10.3 °F 30.19 in SSW 2.8 mph 3.8 mph 53% 0.00 in
03:40 25.0 °F 10.3 °F 30.19 in SSW 2.7 mph 4.5 mph 53% 0.00 in
03:45 25.0 °F 10.3 °F 30.19 in SSW 3.0 mph 4.5 mph 53% 0.00 in
03:50 25.0 °F 10.3 °F 30.19 in SW 2.9 mph 4.5 mph 53% 0.00 in
03:55 25.0 °F 10.3 °F 30.19 in SSW 2.9 mph 4.5 mph 53% 0.00 in
04:00 25.0 °F 9.9 °F 30.19 in South 3.7 mph 6.0 mph 52% 0.00 in
04:05 25.0 °F 9.9 °F 30.19 in South 5.2 mph 6.0 mph 52% 0.00 in
04:10 25.0 °F 10.3 °F 30.19 in South 4.9 mph 6.0 mph 53% 0.00 in
04:15 25.0 °F 9.9 °F 30.19 in SSW 3.7 mph 6.0 mph 52% 0.00 in
04:20 25.1 °F 10.5 °F 30.19 in NW 2.7 mph 4.5 mph 53% 0.00 in
04:25 25.0 °F 10.3 °F 30.19 in South 2.3 mph 4.5 mph 53% 0.00 in
04:30 25.0 °F 10.3 °F 30.19 in South 2.2 mph 4.5 mph 53% 0.00 in
04:35 25.0 °F 10.7 °F 30.19 in WSW 1.8 mph 3.8 mph 54% 0.00 in
04:40 25.0 °F 10.3 °F 30.19 in WSW 2.2 mph 3.8 mph 53% 0.00 in
04:45 25.0 °F 10.7 °F 30.19 in West 2.2 mph 3.8 mph 54% 0.00 in
04:50 25.0 °F 11.1 °F 30.19 in NNW 2.2 mph 3.1 mph 55% 0.00 in
04:55 25.0 °F 11.1 °F 30.19 in North 2.2 mph 3.1 mph 55% 0.00 in
05:00 25.1 °F 11.3 °F 30.19 in WSW 2.0 mph 3.8 mph 55% 0.00 in
05:05 25.1 °F 11.3 °F 30.19 in South 1.3 mph 3.8 mph 55% 0.00 in
05:10 25.3 °F 11.9 °F 30.18 in South 0.8 mph 1.6 mph 56% 0.00 in
05:15 25.3 °F 12.3 °F 30.19 in South 1.3 mph 3.1 mph 57% 0.00 in
05:20 25.1 °F 12.5 °F 30.18 in South 2.0 mph 3.1 mph 58% 0.00 in
05:25 25.0 °F 12.7 °F 30.19 in South 2.9 mph 4.5 mph 59% 0.00 in
05:30 24.8 °F 13.3 °F 30.19 in South 3.2 mph 4.5 mph 61% 0.00 in
05:35 24.6 °F 13.5 °F 30.19 in SSW 3.7 mph 5.4 mph 62% 0.00 in
05:40 24.4 °F 13.7 °F 30.19 in South 4.0 mph 5.4 mph 63% 0.00 in
05:45 24.4 °F 14.0 °F 30.19 in South 3.5 mph 4.5 mph 64% 0.00 in
05:50 24.2 °F 14.6 °F 30.19 in South 4.3 mph 8.3 mph 66% 0.00 in
05:55 24.1 °F 14.7 °F 30.19 in South 4.8 mph 8.3 mph 67% 0.00 in
06:00 24.1 °F 15.1 °F 30.19 in South 4.7 mph 7.6 mph 68% 0.00 in
06:05 24.1 °F 15.1 °F 30.19 in South 6.2 mph 7.6 mph 68% 0.00 in
06:10 24.1 °F 15.7 °F 30.19 in South 6.7 mph 7.6 mph 70% 0.00 in
06:15 24.1 °F 15.7 °F 30.19 in SSW 4.8 mph 7.6 mph 70% 0.00 in
06:20 24.1 °F 16.1 °F 30.19 in SW 4.1 mph 5.4 mph 71% 0.00 in
06:25 24.1 °F 16.4 °F 30.19 in SSW 4.8 mph 6.9 mph 72% 0.00 in
06:30 24.1 °F 16.4 °F 30.19 in South 4.6 mph 6.9 mph 72% 0.00 in
06:35 24.1 °F 16.7 °F 30.19 in South 5.2 mph 7.6 mph 73% 0.00 in
06:40 24.1 °F 16.7 °F 30.19 in SSW 5.7 mph 7.6 mph 73% 0.00 in
06:45 24.1 °F 17.3 °F 30.19 in SW 5.7 mph 8.3 mph 75% 0.00 in
06:50 24.1 °F 17.6 °F 30.19 in SSW 6.1 mph 8.3 mph 76% 0.00 in
06:55 24.1 °F 17.3 °F 30.19 in SSW 5.0 mph 7.6 mph 75% 0.00 in
07:00 24.1 °F 17.6 °F 30.19 in SSW 4.7 mph 6.0 mph 76% 0.00 in
07:05 24.1 °F 17.6 °F 30.19 in South 5.3 mph 6.0 mph 76% 0.00 in
07:10 24.1 °F 17.6 °F 30.19 in South 4.8 mph 5.4 mph 76% 0.00 in
07:15 24.1 °F 17.9 °F 30.19 in South 4.6 mph 5.4 mph 77% 0.00 in
07:20 24.1 °F 18.2 °F 30.19 in South 4.6 mph 5.4 mph 78% 0.00 in
07:25 24.1 °F 18.5 °F 30.19 in South 4.5 mph 7.6 mph 79% 0.00 in
07:30 24.1 °F 18.5 °F 30.19 in South 4.7 mph 7.6 mph 79% 0.00 in
07:35 24.1 °F 18.8 °F 30.19 in South 4.2 mph 7.6 mph 80% 0.00 in
07:40 24.1 °F 19.1 °F 30.19 in South 3.5 mph 5.4 mph 81% 0.00 in
07:45 24.1 °F 19.1 °F 30.18 in North 2.9 mph 4.5 mph 81% 0.00 in
07:50 24.2 °F 19.3 °F 30.19 in North 2.9 mph 3.8 mph 81% 0.00 in
07:55 24.4 °F 19.5 °F 30.19 in WSW 2.7 mph 3.8 mph 81% 0.00 in
08:00 24.4 °F 19.5 °F 30.18 in SSW 1.9 mph 3.1 mph 81% 0.00 in
08:05 24.6 °F 19.6 °F 30.18 in SSW 1.7 mph 2.2 mph 81% 0.00 in
08:10 24.6 °F 19.6 °F 30.18 in SW 1.8 mph 2.2 mph 81% 0.00 in
08:15 25.0 °F 20.0 °F 30.18 in South 1.6 mph 2.2 mph 81% 0.00 in
08:20 25.0 °F 20.0 °F 30.18 in South 1.5 mph 2.2 mph 81% 0.00 in
08:25 25.0 °F 20.0 °F 30.18 in SSW 1.7 mph 2.2 mph 81% 0.00 in
08:30 25.1 °F 20.2 °F 30.18 in SSW 2.1 mph 3.1 mph 81% 0.00 in
08:35 25.1 °F 20.2 °F 30.18 in South 1.9 mph 3.1 mph 81% 0.00 in
08:41 25.3 °F 20.3 °F 30.18 in South 1.5 mph 2.2 mph 81% 0.00 in
08:46 25.3 °F 20.6 °F 30.18 in SSW 2.5 mph 4.5 mph 82% 0.00 in
08:51 25.3 °F 20.6 °F 30.18 in SSW 3.2 mph 5.4 mph 82% 0.00 in
08:56 25.3 °F 20.9 °F 30.18 in South 3.2 mph 5.4 mph 83% 0.00 in
09:01 25.5 °F 21.4 °F 30.18 in SSW 3.7 mph 5.4 mph 84% 0.00 in
09:06 25.5 °F 21.4 °F 30.18 in West 4.6 mph 5.4 mph 84% 0.00 in
09:11 25.7 °F 21.5 °F 30.18 in West 4.2 mph 5.4 mph 84% 0.00 in
09:16 25.7 °F 21.5 °F 30.17 in SW 3.5 mph 5.4 mph 84% 0.00 in
09:21 25.9 °F 21.7 °F 30.17 in South 3.4 mph 5.4 mph 84% 0.00 in
09:26 26.0 °F 21.9 °F 30.17 in South 2.6 mph 3.1 mph 84% 0.00 in
09:31 26.2 °F 22.1 °F 30.17 in South 3.2 mph 4.5 mph 84% 0.00 in
09:36 26.4 °F 22.3 °F 30.17 in South 3.6 mph 4.5 mph 84% 0.00 in
09:41 26.8 °F 22.6 °F 30.17 in SE 3.1 mph 4.5 mph 84% 0.00 in
09:46 26.9 °F 22.8 °F 30.16 in ESE 3.7 mph 5.4 mph 84% 0.00 in
09:51 26.9 °F 22.8 °F 30.17 in South 4.5 mph 5.4 mph 84% 0.00 in
09:56 27.1 °F 23.2 °F 30.16 in South 4.3 mph 6.0 mph 85% 0.00 in
10:01 27.1 °F 23.2 °F 30.16 in South 4.9 mph 7.6 mph 85% 0.00 in
10:06 27.1 °F 23.2 °F 30.16 in South 6.0 mph 7.6 mph 85% 0.00 in
10:11 27.5 °F 23.6 °F 30.16 in South 6.9 mph 9.8 mph 85% 0.00 in
10:16 27.7 °F 24.0 °F 30.16 in South 6.5 mph 9.8 mph 86% 0.00 in
10:21 27.7 °F 24.0 °F 30.16 in South 5.9 mph 8.3 mph 86% 0.00 in
10:26 27.8 °F 24.2 °F 30.15 in South 5.6 mph 8.3 mph 86% 0.00 in
10:31 28.0 °F 24.1 °F 30.15 in South 5.3 mph 8.3 mph 85% 0.00 in
10:36 28.0 °F 24.1 °F 30.14 in South 5.2 mph 8.3 mph 85% 0.00 in
10:41 28.2 °F 24.3 °F 30.14 in SSW 4.6 mph 7.6 mph 85% 0.00 in
10:46 28.2 °F 24.3 °F 30.14 in SSW 5.7 mph 8.3 mph 85% 0.00 in
10:51 28.4 °F 24.5 °F 30.14 in South 6.3 mph 8.3 mph 85% 0.00 in
10:56 28.6 °F 24.6 °F 30.14 in South 5.8 mph 7.6 mph 85% 0.00 in
11:01 28.7 °F 24.8 °F 30.13 in South 6.1 mph 7.6 mph 85% 0.00 in
11:06 28.9 °F 25.0 °F 30.13 in South 6.5 mph 9.8 mph 85% 0.00 in
11:11 29.1 °F 25.2 °F 30.13 in SSW 6.5 mph 9.8 mph 85% 0.00 in
11:16 29.5 °F 25.5 °F 30.13 in SSW 7.0 mph 9.8 mph 85% 0.00 in
11:21 29.5 °F 25.2 °F 30.13 in South 7.4 mph 12.1 mph 84% 0.00 in
11:26 29.6 °F 25.4 °F 30.12 in South 6.8 mph 12.1 mph 84% 0.00 in
11:31 30.0 °F 25.8 °F 30.12 in South 5.8 mph 7.6 mph 84% 0.00 in
11:36 30.4 °F 26.1 °F 30.11 in South 5.4 mph 6.9 mph 84% 0.00 in
11:41 30.4 °F 25.8 °F 30.11 in SSW 5.2 mph 7.6 mph 83% 0.00 in
11:46 30.4 °F 25.5 °F 30.11 in SSW 5.7 mph 8.3 mph 82% 0.00 in
11:51 30.4 °F 25.5 °F 30.10 in South 5.4 mph 8.3 mph 82% 0.00 in
11:56 30.5 °F 25.7 °F 30.10 in South 4.5 mph 7.6 mph 82% 0.00 in
12:01 30.5 °F 25.7 °F 30.09 in South 5.0 mph 7.6 mph 82% 0.00 in
12:06 30.5 °F 25.7 °F 30.09 in SSW 5.1 mph 7.6 mph 82% 0.00 in
12:11 30.5 °F 25.7 °F 30.09 in SW 4.3 mph 6.0 mph 82% 0.00 in
12:16 30.5 °F 25.7 °F 30.08 in SW 4.4 mph 6.0 mph 82% 0.00 in
12:21 30.5 °F 26.0 °F 30.08 in SSW 4.0 mph 6.0 mph 83% 0.00 in
12:26 30.7 °F 26.2 °F 30.08 in South 3.5 mph 5.4 mph 83% 0.00 in
12:31 30.7 °F 26.2 °F 30.07 in SSW 3.6 mph 4.5 mph 83% 0.00 in
12:36 30.9 °F 26.7 °F 30.06 in SSW 3.0 mph 4.5 mph 84% 0.00 in
12:41 31.1 °F 26.8 °F 30.06 in South 2.6 mph 3.8 mph 84% 0.00 in
12:46 31.3 °F 27.0 °F 30.06 in South 2.7 mph 3.8 mph 84% 0.00 in
12:50 31.3 °F 27.0 °F 30.05 in South 1.8 mph 3.1 mph 84% 0.00 in
12:55 31.4 °F 27.2 °F 30.05 in South 0.4 mph 3.1 mph 84% 0.00 in
13:00 31.4 °F 27.2 °F 30.05 in Calm     84% 0.00 in
13:05 31.4 °F 27.2 °F 30.04 in Calm     84% 0.00 in
13:10 31.6 °F 27.4 °F 30.03 in Calm     84% 0.00 in
13:15 31.8 °F 27.8 °F 30.03 in Calm     85% 0.00 in
13:20 32.2 °F 28.2 °F 30.03 in Calm     85% 0.00 in
13:25 32.2 °F 28.2 °F 30.02 in Calm     85% 0.00 in
13:30 32.3 °F 28.4 °F 30.01 in Calm     85% 0.00 in
13:35 32.5 °F 28.2 °F 30.01 in Calm     84% 0.00 in
13:40 32.7 °F 28.7 °F 30.00 in Calm     85% 0.00 in
13:45 32.9 °F 28.9 °F 30.00 in Calm     85% 0.00 in
13:50 33.1 °F 28.8 °F 30.00 in Calm     84% 0.00 in
13:55 33.2 °F 28.9 °F 29.99 in Calm     84% 0.00 in
14:00 33.2 °F 28.9 °F 29.99 in Calm     84% 0.00 in
14:05 33.2 °F 28.9 °F 29.98 in Calm     84% 0.00 in
14:10 33.2 °F 28.9 °F 29.97 in Calm     84% 0.00 in
14:15 33.4 °F 28.8 °F 29.96 in Calm     83% 0.00 in
14:20 33.4 °F 28.8 °F 29.97 in Calm     83% 0.00 in
14:25 33.2 °F 28.7 °F 29.97 in Calm     83% 0.00 in
14:30 33.2 °F 28.7 °F 29.97 in Calm     83% 0.00 in
14:35 33.2 °F 28.7 °F 29.98 in Calm     83% 0.00 in
14:40 33.2 °F 28.7 °F 29.98 in Calm     83% 0.00 in
14:45 33.1 °F 28.5 °F 29.97 in Calm     83% 0.00 in
14:50 32.9 °F 28.3 °F 29.97 in Calm     83% 0.00 in
14:55 33.1 °F 28.5 °F 29.96 in Calm   0.7 mph 83% 0.00 in
15:00 33.1 °F 28.8 °F 29.95 in East 0.1 mph 0.7 mph 84% 0.00 in
15:05 33.2 °F 28.9 °F 29.95 in Calm   0.7 mph 84% 0.00 in
15:10 33.4 °F 29.1 °F 29.94 in Calm     84% 0.00 in
15:15 33.4 °F 29.1 °F 29.95 in Calm     84% 0.00 in
15:20 33.2 °F 28.9 °F 29.95 in Calm     84% 0.00 in
15:25 33.2 °F 28.9 °F 29.94 in SE 0.1 mph 0.7 mph 84% 0.00 in
15:30 33.2 °F 28.9 °F 29.94 in ESE 0.2 mph 1.6 mph 84% 0.00 in
15:35 33.2 °F 28.9 °F 29.92 in ESE 0.3 mph 2.2 mph 84% 0.00 in
15:40 33.2 °F 29.2 °F 29.92 in East 0.3 mph 3.1 mph 85% 0.00 in
15:45 33.2 °F 28.9 °F 29.93 in ENE 1.1 mph 5.4 mph 84% 0.00 in
15:51 33.2 °F 29.2 °F 29.93 in ENE 1.5 mph 5.4 mph 85% 0.00 in
15:56 33.2 °F 29.2 °F 29.92 in East 0.7 mph 5.4 mph 85% 0.00 in
16:01 33.2 °F 29.2 °F 29.91 in East 1.6 mph 5.4 mph 85% 0.00 in
16:06 33.2 °F 29.2 °F 29.91 in ENE 2.6 mph 5.4 mph 85% 0.00 in
Export, Pennsylvania, USA
Compliments of Weather Underground